DW6047 Weather Reports


time (UTC)temp
F
wind
direction
speed
knots
gust
knots
rain 1hr
in
rain 24hr
in
rain mn
in
humidity
%
barometer
mb
20260504160112 65 269 1.7 7.0 0.00 0.00 0.00 54 1013.9
20260504150107 62 254 2.6 6.1 0.00 0.00 0.00 57 1014.6
20260504130104 54 279 1.7 5.2 0.00 0.00 0.00 67 1015.3
20260504081523 49 267 0.9 3.5 0.00 0.00 0.00 68 1015.4
20260504060120 49 267 0.0 1.7 0.00 0.00 0.00 70 1015.4
20260504044605 50 267 0.0 1.7 0.00 0.00 0.00 66 1015.3
20260504043001 50 267 0.0 1.7 0.00 0.00 0.00 66 1015.2
20260504041609 50 267 0.0 1.7 0.00 0.00 0.00 65 1015.1
20260504040109 51 267 0.0 1.7 0.00 0.00 0.00 65 1015.0
20260504034508 51 267 0.0 1.7 0.00 0.00 0.00 65 1014.7
20260504033016 51 267 0.0 3.5 0.00 0.00 0.00 64 1014.7
20260504031529 52 267 0.0 1.7 0.00 0.00 0.00 63 1014.7
20260504030026 52 267 0.0 1.7 0.00 0.00 0.00 63 1014.6
20260504024514 52 267 0.0 1.7 0.00 0.00 0.00 62 1014.5
20260504023021 51 267 0.0 1.7 0.00 0.00 0.00 64 1014.7
20260504021600 52 267 0.0 1.7 0.00 0.00 0.00 66 1014.6
20260504020003 51 267 0.0 0.9 0.00 0.00 0.00 64 1014.6
20260504014529 52 267 0.0 1.7 0.00 0.00 0.00 65 1014.6
20260504013114 52 293 0.0 1.7 0.00 0.00 0.00 64 1014.5
20260504011514 53 293 0.0 1.7 0.00 0.00 0.00 62 1014.4
20260504010116 53 293 0.0 1.7 0.00 0.00 0.00 62 1014.3
20260504004604 54 293 0.0 1.7 0.00 0.00 0.00 60 1014.1
20260504003010 54 293 0.0 1.7 0.00 0.00 0.00 60 1013.9
20260504001509 55 293 0.0 1.7 0.00 0.00 0.00 60 1013.7
20260504000112 55 293 0.0 3.5 0.00 0.00 0.00 58 1013.6
20260503234518 56 293 0.0 1.7 0.00 0.00 0.00 59 1013.3
20260503233104 56 293 0.0 1.7 0.00 0.00 0.00 56 1013.2
20260503231511 57 293 0.0 4.3 0.00 0.00 0.00 55 1013.2
20260503230016 57 277 0.9 7.0 0.00 0.00 0.00 55 1013.1
20260503224601 57 288 0.9 4.3 0.00 0.00 0.00 54 1013.0
20260503223113 58 284 0.0 8.7 0.00 0.00 0.00 53 1013.0
20260503221504 58 292 0.0 4.3 0.00 0.00 0.00 51 1012.9
20260503220021 58 289 0.0 4.3 0.00 0.00 0.00 53 1013.0
20260503214523 58 286 0.9 4.3 0.00 0.00 0.00 52 1012.9
20260503213108 59 69 0.0 5.2 0.00 0.00 0.00 50 1012.8
20260503211617 59 286 0.9 4.3 0.00 0.00 0.00 51 1012.7
20260503210030 59 77 1.7 4.3 0.00 0.00 0.00 51 1012.8
20260503204510 58 267 0.9 6.1 0.00 0.00 0.00 50 1012.8
20260503203029 58 316 0.0 8.7 0.00 0.00 0.00 50 1013.1
20260503201534 57 324 0.0 3.5 0.00 0.00 0.00 51 1013.2
20260503200038 58 302 0.9 6.1 0.00 0.00 0.00 53 1013.3
20260503194626 57 94 0.9 6.1 0.00 0.00 0.00 51 1013.4
20260503193021 56 297 0.9 5.2 0.00 0.00 0.00 53 1013.7
20260503191506 56 188 1.7 4.3 0.00 0.00 0.00 53 1013.8
20260503190019 55 75 0.9 6.1 0.00 0.00 0.00 54 1013.9
20260503184601 55 271 1.7 7.8 0.00 0.00 0.00 52 1014.0
20260503183108 54 232 0.0 7.0 0.00 0.00 0.00 55 1014.1
20260503181618 54 290 4.3 10.4 0.00 0.00 0.00 55 1014.1
20260503180018 54 277 2.6 9.6 0.00 0.00 0.00 55 1014.2
20260503174558 54 263 0.9 5.2 0.00 0.00 0.00 55 1014.4
20260503173212 53 281 0.0 10.4 0.00 0.00 0.00 56 1014.5
20260503171646 53 309 1.7 5.2 0.00 0.00 0.00 55 1014.5